Printer-friendly version

IAU Minor Planet Center

Minor Planet Center

MPEC 2004-Y66 : 2004 MN4

The following Minor Planet Electronic Circular may be linked-to from your own Web pages, but must not otherwise be redistributed electronically.


Read MPEC 2004-Y65 Read MPEC 2004-Y67


M.P.E.C. 2004-Y66                                Issued 2004 Dec. 27, 03:15 UT

     The Minor Planet Electronic Circulars contain information on unusual
         minor planets and routine data on comets.  They are published
   on behalf of Commission 20 of the International Astronomical Union by the
          Minor Planet Center, Smithsonian Astrophysical Observatory,
                          Cambridge, MA 02138, U.S.A.

                  Supported in part by the Brinson Foundation
             Prepared using the Tamkin Foundation Computer Network

                              MPC@CFA.HARVARD.EDU
          URL http://cfa-www.harvard.edu/iau/mpc.html  ISSN 1523-6714

                                   2004 MN4

                           Revision to MPEC 2004-Y64

Additional Observations:
     K04M04N 3C2004 12 26.09374 00 48 31.77 -29 26 56.1          17.3 V EY066H06
     K04M04N 3C2004 12 26.11040 00 48 42.20 -29 25 44.8          16.7 V EY066H06
     K04M04N 3C2004 12 26.11845 00 48 47.24 -29 25 10.4          17.3 V EY066H06
     K04M04N 3C2004 12 27.07112 00 59 04.57 -28 17 39.0          16.9 V EY066H06
     K04M04N 3C2004 12 27.07563 00 59 07.29 -28 17 19.1          17.0 V EY066H06
     K04M04N 3C2004 12 27.08011 00 59 09.96 -28 17 00.1          17.2 V EY066H06
     K04M04N 3C2004 12 27.08433 00 59 12.47 -28 16 41.9          17.3 V EY066H06

Observer details:
H06 New Mexico Skies Observatory.  Observer J. Sue.  0.25-m reflector + CCD.

Orbital elements:
2004 MN4                                                             PHA 0.002A
Epoch 2005 Jan. 30.0 TT = JDT 2453400.5                 MPC
M 137.20946              (2000.0)            P               Q
n   1.11267696     Peri.  126.38211     +0.87284344     +0.48740621
a   0.9223378      Node   204.47489     -0.46427767     +0.81420841
e   0.1911383      Incl.    3.33111     -0.15030159     +0.31543596
P   0.89           H   19.8           G   0.15           U   5
Residuals in seconds of arc
040619 695  0.1+  0.1-    041223 E12  0.6+  0.3-    041226 H06  0.1-  0.2+
040619 695  0.4+  0.4-    041223 E12  0.1+  0.2+    041226 683  0.1+  0.1-
040619 695  0.1+  0.1-    041223 E12  0.2+  0.6-    041226 683  0.0   0.4-
040620 695  0.3-  0.1+    041223 E12  1.0+  0.5-    041226 H06  0.5-  0.9+
040620 695  0.1-  0.1+    041224 683  0.4-  0.5-    041226 683  1.0-  0.2+
040620 695  0.5-  0.2-    041224 683  0.7+  0.2-    041226 683  0.1+  0.1+
041218 E12  0.1-  0.7+    041224 699  0.5-  0.0     041226 H06  0.1+  0.1-
041218 E12  1.2+  0.2-    041224 699  0.4-  0.2+    041226 683  0.3-  0.3-
041218 E12  0.0   0.2-    041224 699  0.4-  0.2+    041226 683  1.1+  0.8-
041218 E12  0.4-  0.4+    041224 699  0.4-  0.2-    041226 H06  1.0-  0.9+
041218 E12  0.1+  0.2-    041224 699  1.1+  1.4-    041226 683  0.0   0.6-
041218 E12  0.1+  0.3-    041224 699  1.4-  1.0+    041226 H06  0.6-  0.6+
041218 E12  0.1+  0.1-    041224 699  0.4-  0.4-    041226 H06  0.3-  0.6-
041218 E12  0.2+  0.3+    041224 699  0.6-  0.5+    041226 683  0.1+  0.4-
041218 E12  0.7+  0.1+    041224 620  0.4+  0.2+    041226 H06  0.2+  0.5+
041218 E12  0.3+  0.5+    041224 620  0.2+  0.5+    041226 683  0.4-  0.2-
041218 E12  0.7+  0.1-    041224 620  0.3+  0.2+    041226 683  0.7+  2.0-
041218 E12  0.1-  0.1-    041225 H06  1.0-  0.4+    041226 683  0.5-  0.8-
041219 854  0.5-  1.0-    041225 H06  0.8-  0.5+    041226 651  0.4+  0.2-
041219 854  1.3-  1.4+    041225 683  0.2+  0.2+    041226 683  0.2+  0.3+
041219 854  0.8+  0.5+    041225 683  0.1+  0.1+    041226 651  0.3+  0.2-
041219 854  0.8-  0.6-    041225 H06  0.4-  0.2+    041226 651  0.5+  0.0
041219 854  0.1-  0.3-    041225 683  0.4-  0.9-    041226 651  0.2+  0.1+
041219 474  0.2+  0.2-    041225 683  0.5-  0.3+    041226 683  0.3+  0.5+
041219 474  0.1+  0.1-    041225 683  0.2+  0.1-    041226 448  0.1+  0.1-
041219 474  0.1-  0.3-    041225 683  0.4+  0.6-    041226 H06  0.2-  0.3-
041219 474  0.1+  0.1-    041225 683  0.3-  0.0     041226 651  0.2+  0.0
041220 673  0.7-  0.6-    041225 683  0.0   0.1-    041226 651  0.3+  0.2+
041220 673  0.5-  0.1-    041225 683  0.6-  0.3-    041226 683  0.5+  0.5-
041220 673  0.6-  0.4-    041225 683  0.2-  0.5-    041226 683  0.5-  0.0
041220 673  0.3-  0.0     041225 683  0.0   0.0     041226 683  0.3-  0.3+
041222 E12  0.5+  0.1+    041225 683  0.7-  0.5+    041226 448  0.2+  0.0
041222 E12  0.5+  0.1-    041225 683  0.8-  0.2-    041226 683  0.4+  0.2+
041222 E12  0.4-  0.3-    041225 683  0.1-  0.4-    041226 H06  0.1-  0.3-
041222 E12  0.9+  0.1+    041225 683  0.4+  0.1-    041226 651  0.4+  0.2+
041223 704 (2.5-  2.3+)   041225 683  0.2+  0.2-    041226 651  0.4+  0.5+
041223 704  0.2-  0.9+    041225 683  0.1+  0.4+    041226 651  0.3+  0.0
041223 704 (2.3-  0.4+)   041225 683  0.6-  0.9-    041226 651  0.4+  0.3+
041223 704  0.4-  0.6-    041225 683  0.6+  0.4-    041226 683  0.7-  0.2-
041223 704  1.0-  1.5+    041225 448  0.3+  0.1-    041226 651  0.3+  0.3+
041223 704  0.3-  0.3-    041225 448  0.3+  0.1-    041226 448  0.0   0.0
041223 704  1.5-  0.7+    041225 448  0.2+  0.1-    041226 683  1.2+  1.0+
041223 704  0.8-  0.3-    041226 H36  0.4-  0.6+    041226 683  0.3-  0.3+
041223 E12  0.8+  0.2-    041226 H36  0.3+  1.0+    041226 448  0.2-  0.2-
041223 E12  0.3-  0.1+    041226 H36  0.3-  0.4-    041226 683  0.3-  0.2+
041223 E12  0.4+  0.2+    041226 H36  0.0   0.0     041226 651  0.3+  0.1+
041223 E12  0.4+  0.3-    041226 H36  1.1+  0.1-    041226 683  1.2-  1.5-
041223 E12  0.2+  0.1-    041226 H36  0.9+  0.5+    041226 651  0.6+  0.3+
041223 E12  0.4+  0.1+    041226 H06  0.4-  0.2-    041226 651  0.3+  0.0
041223 E12  0.6+  0.2-    041226 715  0.1+  0.5+    041226 683  0.5+  0.4-
041223 E12  0.4+  0.0     041226 H06  0.2-  0.1-    041226 448  0.2+  0.0
041223 E12  0.2+  0.2+    041226 H06  0.5-  1.0+    041226 683  0.3-  0.5-
041223 E12  0.9+  0.6-    041226 H36  0.0   0.2-    041226 683  0.1-  0.9+
041223 E12  0.4+  0.3+    041226 715  0.1-  0.4+    041226 683  0.3-  0.1-
041223 E12  0.0   0.0     041226 H06  0.5+  0.9+    041227 H06  0.6-  0.0
041223 E12  0.3+  0.2+    041226 H06  0.1+  0.4+    041227 H06  0.2-  0.5+
041223 E12  0.1+  0.4+    041226 H06  0.1-  0.1+    041227 H06  0.3-  0.2+
041223 E12  0.7+  0.6-    041226 715  0.2-  0.5+    041227 H06  0.4-  0.1+
041223 E12  0.3+  0.4-    041226 715  0.1-  0.2+

Ephemeris:
2004 MN4                 a,e,i = 0.92, 0.19, 3                   q = 0.7460
Date    TT    R. A. (2000) Decl.     Delta      r     Elong.  Phase     V
2004 12 21    23 46.78   -34 42.3    0.096    0.963    74.8    99.6    18.2
2004 12 31    01 36.89   -23 29.4    0.105    0.994    92.6    81.4    17.7
2005 01 10    02 46.15   -12 17.4    0.129    1.021   103.4    69.5    17.8
2005 01 20    03 31.77   -03 52.0    0.160    1.045   108.0    63.6    18.2
2005 01 30    04 06.06   +02 15.0    0.196    1.064   108.7    61.2    18.6
2005 02 09    04 35.03   +06 49.9    0.235    1.080   107.2    60.8    19.0
2005 02 19    05 01.79   +10 21.3    0.275    1.091   104.6    61.3    19.4
2005 03 01    05 27.67   +13 04.9    0.314    1.097   101.4    62.3    19.7
2005 03 11    05 53.35   +15 10.8    0.353    1.099    97.8    63.6    20.0
2005 03 21    06 19.25   +16 44.8    0.389    1.096    94.2    65.1    20.2
2005 03 31    06 45.38   +17 50.6    0.421    1.088    90.5    66.7    20.5
2005 04 10    07 11.74   +18 31.5    0.450    1.076    86.9    68.5    20.6
2005 04 20    07 38.28   +18 49.6    0.472    1.059    83.3    70.4    20.8
2005 04 30    08 04.77   +18 47.8    0.488    1.038    79.7    72.7    20.9
2005 05 10    08 31.04   +18 29.2    0.497    1.013    76.1    75.4    20.9
2005 05 20    08 56.87   +17 57.0    0.497    0.985    72.5    78.7    21.0
2005 05 30    09 21.80   +17 16.5    0.488    0.953    68.8    82.6    21.0
2005 06 09    09 45.32   +16 34.2    0.470    0.920    64.8    87.6    21.1
2005 06 19    10 06.54   +15 59.3    0.442    0.885    60.3    93.9    21.1

Gareth V. Williams           (C) Copyright 2004 MPC           M.P.E.C. 2004-Y66

Read MPEC 2004-Y65 Read MPEC 2004-Y67


Our Web policy. Index to the CBAT/MPC/ICQ pages.


Valid HTML 4.01!